sat.trackr.live / text

‹ back to catalog

STARLINK-34089

NORAD 64039 · 2025-102T

PAYLOAD ACTIVE UNKNOWN

§ Identity

Operator
Country
US
Launch date
2025-05-16
Launch site
AFWTR
Launch vehicle
Mass (kg)
RCS (m²)

Purposes: comms

External: N2YO · Heavens-Above · Gunter

§ Orbital elements

Epoch: 2026-05-24T20:08:34.125504Z

Period
96.11 min
Inclination
70.0005°
Eccentricity
0.0003003
Mean motion
14.98353110 rev/d
Perigee alt
569.9 km
Apogee alt
574.1 km
Semi-major
6,950.1 km
B*
4.5484e-4
RAAN
282.6485°
Arg perigee
266.1397°
Mean anomaly
93.9419°
Rev number
5,735

§ Raw data

STARLINK-340891 64039U 25102T   26144.83928386  .00005341  00000+0  45484-3 0  99962 64039  70.0005 282.6485 0003003 266.1397  93.9419 14.98353110 57351

JSON: /api/v1/satellites/64039 · /tle

For live sub-satellite position, see the globe view (requires WebGL).

§ Visibility from observer

Set your observer location to see the next 7 days of passes ≥ 10°. The values pass through the URL so the page stays shareable.

No JS? Fill the form by hand. The geolocation button needs JavaScript.